When you browse on this site, cookies collect data to enhance your experience and personalize the content and advertising you see.
Visit our Privacy Policy to learn more. By continuing to use the site, you agree to this use of cookies and data.
  • In Netherlands
  • List of Countries
  • For 7 days
  • Water Temperature
  • Weather Map
  • Weather Widgets
  • user-avatar
    Login

    Hourly Weather Brasília

    Today, 30 May, Saturday

    Time Temperature Precipitation Wind Pressure Humidity
    00:00 +14°C° 0 mm 2 mps 667 mmHg 84%
    01:00 +14°C° 0 mm 2 mps 666 mmHg 84%
    02:00 +13°C° 0 mm 2 mps 666 mmHg 83%
    03:00 +13°C° 0 mm 2 mps 666 mmHg 82%
    04:00 +13°C° 0 mm 2 mps 666 mmHg 83%
    05:00 +12°C° 0 mm 2 mps 666 mmHg 84%
    06:00 +12°C° 0 mm 2 mps 666 mmHg 85%
    07:00 +13°C° 0 mm 2 mps 667 mmHg 80%
    08:00 +14°C° 0 mm 3 mps 668 mmHg 76%
    09:00 +16°C° 0 mm 3 mps 669 mmHg 72%
    10:00 +18°C° 0 mm 3 mps 669 mmHg 68%
    11:00 +20°C° 0 mm 3 mps 669 mmHg 63%
    12:00 +21°C° 0 mm 3 mps 669 mmHg 59%
    13:00 +23°C° 0 mm 2 mps 669 mmHg 56%
    14:00 +23°C° 0 mm 2 mps 668 mmHg 54%
    15:00 +24°C° 0 mm 2 mps 667 mmHg 51%
    16:00 +21°C° 0 mm 2 mps 667 mmHg 58%
    17:00 +19°C° 0 mm 2 mps 667 mmHg 65%
    18:00 +17°C° 0 mm 2 mps 666 mmHg 72%
    19:00 +18°C° 0 mm 1 mps 666 mmHg 74%
    20:00 +16°C° 0 mm 1 mps 666 mmHg 76%
    21:00 +15°C° 0 mm 1 mps 666 mmHg 79%
    22:00 +15°C° 0 mm 1 mps 666 mmHg 79%
    23:00 +14°C° 0 mm 1 mps 667 mmHg 79%

    Tomorrow, 31 May, Sunday

    Time Temperature Precipitation Wind Pressure Humidity
    00:00 +14°C° 0 mm 1 mps 667 mmHg 79%
    01:00 +14°C° 0 mm 1 mps 666 mmHg 81%
    02:00 +13°C° 0 mm 1 mps 666 mmHg 82%
    03:00 +13°C° 0 mm 2 mps 666 mmHg 84%
    04:00 +13°C° 0 mm 1 mps 666 mmHg 84%
    05:00 +13°C° 0 mm 1 mps 666 mmHg 85%
    06:00 +12°C° 0 mm 1 mps 666 mmHg 86%
    07:00 +14°C° 0 mm 2 mps 667 mmHg 79%
    08:00 +16°C° 0 mm 2 mps 668 mmHg 73%
    09:00 +18°C° 0 mm 2 mps 668 mmHg 66%
    10:00 +20°C° 0 mm 2 mps 669 mmHg 60%
    11:00 +21°C° 0 mm 2 mps 669 mmHg 54%
    12:00 +24°C° 0 mm 1 mps 669 mmHg 49%
    13:00 +24°C° 0 mm 1 mps 669 mmHg 47%
    14:00 +25°C° 0 mm 1 mps 668 mmHg 44%
    15:00 +25°C° 0 mm 1 mps 668 mmHg 42%
    16:00 +23°C° 0 mm 1 mps 667 mmHg 49%
    17:00 +21°C° 0 mm 1 mps 667 mmHg 56%
    18:00 +17°C° 0 mm 0 mps 666 mmHg 63%
    19:00 +19°C° 0 mm 1 mps 666 mmHg 66%
    20:00 +18°C° 0 mm 1 mps 666 mmHg 68%
    21:00 +16°C° 0 mm 1 mps 666 mmHg 71%
    22:00 +16°C° 0 mm 1 mps 666 mmHg 74%
    23:00 +15°C° 0 mm 1 mps 666 mmHg 77%

    Day after tomorrow, 1 June, Monday

    Time Temperature Precipitation Wind Pressure Humidity
    00:00 +15°C° 0 mm 1 mps 666 mmHg 80%
    01:00 +15°C° 0 mm 1 mps 666 mmHg 81%
    02:00 +14°C° 0 mm 1 mps 666 mmHg 82%
    03:00 +14°C° 0 mm 1 mps 666 mmHg 83%
    04:00 +14°C° 0 mm 1 mps 666 mmHg 84%
    05:00 +13°C° 0 mm 0 mps 666 mmHg 84%
    06:00 +12°C° 0 mm 0 mps 665 mmHg 85%
    07:00 +14°C° 0 mm 0 mps 666 mmHg 78%
    08:00 +17°C° 0 mm 0 mps 667 mmHg 72%
    09:00 +21°C° 0 mm 1 mps 668 mmHg 65%
    10:00 +22°C° 0 mm 1 mps 668 mmHg 58%
    11:00 +24°C° 0 mm 1 mps 669 mmHg 52%
    12:00 +26°C° 0 mm 1 mps 669 mmHg 45%
    13:00 +26°C° 0 mm 1 mps 668 mmHg 44%
    14:00 +26°C° 0 mm 1 mps 668 mmHg 43%
    15:00 +26°C° 0 mm 2 mps 667 mmHg 43%
    16:00 +24°C° 0 mm 1 mps 666 mmHg 49%
    17:00 +22°C° 0 mm 1 mps 666 mmHg 56%
    18:00 +18°C° 0 mm 0 mps 665 mmHg 62%
    19:00 +17°C° 0 mm 0 mps 666 mmHg 64%
    20:00 +17°C° 0 mm 0 mps 666 mmHg 66%
    21:00 +16°C° 0 mm 0 mps 666 mmHg 68%
    22:00 +16°C° 0 mm 0 mps 666 mmHg 70%
    23:00 +15°C° 0 mm 0 mps 666 mmHg 72%

    2 June, Tuesday

    Time Temperature Precipitation Wind Pressure Humidity
    00:00 +15°C° 0 mm 0 mps 666 mmHg 74%
    01:00 +15°C° 0 mm 0 mps 666 mmHg 75%
    02:00 +14°C° 0 mm 0 mps 666 mmHg 77%
    03:00 +14°C° 0 mm 0 mps 665 mmHg 78%
    04:00 +14°C° 0 mm 0 mps 665 mmHg 79%
    05:00 +14°C° 0 mm 0 mps 665 mmHg 81%
    06:00 +14°C° 0 mm 1 mps 666 mmHg 82%
    07:00 +16°C° 0 mm 1 mps 666 mmHg 76%
    08:00 +19°C° 0 mm 1 mps 667 mmHg 71%
    09:00 +21°C° 0 mm 1 mps 668 mmHg 65%
    10:00 +23°C° 0 mm 2 mps 668 mmHg 59%
    11:00 +24°C° 0 mm 2 mps 668 mmHg 54%
    12:00 +26°C° 0 mm 2 mps 668 mmHg 48%
    13:00 +26°C° 0 mm 2 mps 668 mmHg 47%
    14:00 +26°C° 0 mm 2 mps 667 mmHg 46%
    15:00 +26°C° 0 mm 2 mps 667 mmHg 46%
    16:00 +25°C° 0 mm 1 mps 666 mmHg 51%
    17:00 +23°C° 0 mm 1 mps 666 mmHg 57%
    18:00 +19°C° 0 mm 0 mps 665 mmHg 62%
    19:00 +18°C° 0 mm 0 mps 666 mmHg 64%
    20:00 +18°C° 0 mm 0 mps 666 mmHg 65%
    21:00 +17°C° 0 mm 0 mps 666 mmHg 67%
    22:00 +17°C° 0 mm 0 mps 666 mmHg 68%
    23:00 +16°C° 0 mm 0 mps 666 mmHg 70%

    3 June, Wednesday

    Time Temperature Precipitation Wind Pressure Humidity
    00:00 +16°C° 0 mm 0 mps 666 mmHg 72%
    01:00 +18°C° 0 mm 1 mps 666 mmHg 74%
    02:00 +16°C° 0 mm 1 mps 666 mmHg 76%
    03:00 +16°C° 0 mm 1 mps 666 mmHg 79%
    04:00 +16°C° 0 mm 1 mps 666 mmHg 81%
    05:00 +16°C° 0 mm 1 mps 666 mmHg 84%
    06:00 +15°C° 0 mm 1 mps 666 mmHg 86%
    07:00 +18°C° 0 mm 1 mps 667 mmHg 81%
    08:00 +19°C° 0 mm 2 mps 668 mmHg 75%
    09:00 +21°C° 0 mm 2 mps 669 mmHg 70%
    10:00 +23°C° 0 mm 2 mps 669 mmHg 64%
    11:00 +25°C° 0 mm 2 mps 669 mmHg 59%
    12:00 +27°C° 0 mm 3 mps 669 mmHg 53%
    13:00 +27°C° 0 mm 2 mps 668 mmHg 52%
    14:00 +27°C° 0 mm 2 mps 668 mmHg 50%
    15:00 +27°C° 0 mm 2 mps 667 mmHg 49%
    16:00 +25°C° 0 mm 2 mps 667 mmHg 55%
    17:00 +24°C° 0 mm 2 mps 666 mmHg 62%
    18:00 +22°C° 0 mm 1 mps 666 mmHg 68%
    19:00 +21°C° 0 mm 1 mps 666 mmHg 71%
    20:00 +20°C° 0 mm 1 mps 667 mmHg 74%
    21:00 +19°C° 0 mm 2 mps 667 mmHg 78%
    22:00 +18°C° 0 mm 2 mps 667 mmHg 80%
    23:00 +18°C° 0 mm 2 mps 667 mmHg 82%

    4 June, Thursday

    Time Temperature Precipitation Wind Pressure Humidity
    00:00 +17°C° 0 mm 2 mps 667 mmHg 85%
    01:00 +17°C° 0 mm 2 mps 667 mmHg 85%
    02:00 +17°C° 0 mm 2 mps 667 mmHg 85%
    03:00 +17°C° 0 mm 2 mps 667 mmHg 85%
    04:00 +16°C° 0 mm 2 mps 667 mmHg 85%
    05:00 +16°C° 0 mm 2 mps 667 mmHg 85%
    06:00 +16°C° 0 mm 2 mps 667 mmHg 86%
    07:00 +17°C° 0 mm 3 mps 668 mmHg 82%
    08:00 +19°C° 0 mm 3 mps 669 mmHg 77%
    09:00 +20°C° 0 mm 4 mps 669 mmHg 73%
    10:00 +21°C° 0 mm 4 mps 669 mmHg 69%
    11:00 +23°C° 0 mm 4 mps 669 mmHg 66%
    12:00 +26°C° 0 mm 4 mps 669 mmHg 62%
    13:00 +26°C° 0 mm 4 mps 669 mmHg 61%
    14:00 +26°C° 0 mm 3 mps 668 mmHg 60%
    15:00 +26°C° 0 mm 3 mps 668 mmHg 59%
    16:00 +25°C° 0 mm 3 mps 667 mmHg 65%
    17:00 +22°C° 0 mm 3 mps 667 mmHg 72%
    18:00 +21°C° 0 mm 2 mps 667 mmHg 78%
    19:00 +20°C° 0 mm 2 mps 667 mmHg 82%
    20:00 +19°C° 0 mm 2 mps 667 mmHg 86%
    21:00 +19°C° 0 mm 2 mps 668 mmHg 89%
    22:00 +18°C° 0 mm 2 mps 668 mmHg 89%
    23:00 +18°C° 0 mm 2 mps 668 mmHg 89%
    Show more